Wind_Speed
120 121 121 122 123 124 124 125 125 125 125 125 125 125 125 126 127 128 129 129 129 130 130 131 132 133 134 135 137 138 140 141 142 143 143 143 143 143 143 144 144 145 146 147 148 149 150 151 151 152 152 153 154 154 154 154 154 154 154 153 153 152 151 150 148 146 146 149 151 151 151 148 145 144 143 141 140 140 140 140 139 138 136 135 133
116 117 117 118 119 119 120 121 121 122 122 123 123 123 123 124 125 126 127 128 129 129 130 130 130 131 132 133 134 135 137 138 140 141 143 144 144 145 145 145 145 146 146 146 147 148 149 150 151 152 152 153 154 155 155 156 156 156 156 156 155 155 154 153 152 150 149 150 151 152 153 154 154 152 150 147 145 143 142 140 139 139 138 137 136
111 112 112 113 114 115 115 116 117 117 118 119 120 120 120 121 122 123 124 126 127 128 129 130 130 130 131 132 132 133 134 135 137 138 140 142 144 145 146 147 147 147 147 147 148 148 148 149 150 151 152 153 154 155 155 156 157 157 158 158 158 157 157 156 155 153 152 152 153 154 154 155 156 157 157 155 153 150 148 145 142 141 140 139 138
106 107 107 108 109 110 111 112 112 113 114 115 116 116 117 118 119 119 121 122 124 125 127 128 129 130 130 131 132 132 133 134 135 136 137 138 140 142 144 146 147 148 149 149 149 149 149 150 150 150 151 152 153 154 155 155 156 157 158 159 159 159 159 158 157 156 155 154 155 156 156 156 157 158 159 160 159 157 156 153 151 148 145 143 142
102 103 103 104 105 106 107 108 109 110 111 112 112 113 114 115 116 117 118 119 120 122 123 125 127 128 129 130 131 131 132 133 134 135 136 137 137 139 141 143 145 147 148 150 150 151 151 151 151 151 151 152 153 153 154 154 155 156 157 158 159 159 159 160 159 158 157 157 156 157 158 159 159 159 160 160 161 161 160 158 156 155 153 150 148
100 101 102 102 103 104 104 105 106 107 108 109 110 111 111 112 113 114 115 117 118 119 120 122 123 125 127 128 129 130 131 132 133 134 135 136 137 137 139 140 141 143 145 147 149 150 151 152 152 153 153 153 153 153 154 154 155 155 156 157 157 158 159 159 160 160 159 158 158 159 160 160 161 162 162 162 161 162 162 161 160 158 157 155 153
100 100 101 101 102 102 103 104 105 106 107 107 108 109 109 110 111 112 113 114 115 117 118 119 121 122 124 125 127 128 129 130 131 132 134 135 136 137 138 139 140 141 142 144 145 147 149 151 152 153 154 154 154 155 155 155 155 155 155 156 156 157 157 158 158 159 159 159 159 159 160 161 162 163 164 164 163 163 163 163 163 163 161 160 158
98 99 99 100 101 101 102 103 104 105 106 106 107 107 108 109 110 110 111 112 113 114 116 117 119 120 122 123 124 126 127 128 130 131 132 133 134 135 137 138 139 141 142 142 143 144 145 147 149 151 153 154 155 156 156 156 156 156 156 156 156 156 156 157 157 157 158 158 159 159 160 161 162 163 164 165 166 165 164 164 165 165 165 165 164
96 97 97 98 99 100 101 102 103 104 104 105 106 106 107 108 109 110 110 111 112 113 114 115 116 118 119 121 122 123 125 126 127 129 130 131 132 133 135 136 138 140 141 142 143 143 144 145 146 147 149 151 153 154 156 157 157 157 157 157 157 157 156 156 156 157 157 157 157 158 159 159 161 162 164 165 166 166 166 166 166 166 167 167 167
94 95 95 96 97 97 98 100 101 102 102 103 104 105 106 107 108 109 110 110 111 112 113 114 115 116 118 119 120 121 123 124 126 127 128 129 130 131 132 134 136 138 139 141 142 143 143 144 144 145 146 148 149 151 153 154 156 157 157 158 158 158 157 157 157 157 157 157 157 157 157 158 159 161 162 164 165 166 166 166 166 166 167 167 168
92 93 93 94 95 95 96 98 98 99 100 100 101 102 103 105 106 107 108 109 110 111 113 114 115 116 117 118 119 120 121 122 124 125 126 127 128 129 130 132 134 136 137 138 140 141 142 143 144 145 146 146 147 148 149 150 152 154 155 157 158 159 158 158 158 158 158 157 157 157 156 156 157 158 160 162 163 164 165 165 166 166 166 166 167
90 90 91 92 92 93 94 95 96 97 97 98 99 99 101 102 103 104 105 106 108 109 111 112 114 115 116 118 119 120 121 122 123 124 125 125 126 127 128 131 133 134 135 136 137 138 140 141 142 143 145 145 146 147 147 148 148 150 151 153 155 157 158 159 159 159 158 158 158 157 157 157 157 157 158 159 161 162 163 164 165 165 165 165 165
88 89 89 90 90 91 92 93 94 95 95 95 96 97 98 99 100 101 102 103 105 106 108 109 111 112 114 116 118 119 120 121 122 123 124 124 125 125 127 129 131 132 133 134 135 136 137 139 140 142 143 144 145 146 146 146 147 147 148 149 151 152 155 156 158 158 158 158 158 158 158 158 158 158 158 158 159 160 160 161 162 163 163 164 164
86 87 87 87 88 89 90 91 92 92 92 93 93 94 95 96 97 98 100 101 102 103 105 106 108 109 111 113 115 117 118 119 120 122 122 123 124 124 125 127 129 130 132 133 133 134 135 137 138 139 140 142 143 144 145 145 146 146 146 147 148 149 150 152 154 156 157 157 158 158 158 158 158 158 159 159 159 159 159 159 160 161 161 162 162
84 85 85 85 86 87 88 89 90 90 90 91 91 92 92 93 95 96 97 98 99 101 102 104 105 106 108 110 112 113 115 116 117 118 120 121 122 123 124 126 127 129 130 131 132 133 134 135 136 137 138 139 140 141 142 143 144 144 145 146 146 147 148 149 150 152 153 154 155 156 157 158 158 158 159 160 160 160 159 159 159 159 160 160 160
82 83 82 83 84 85 86 87 88 88 88 89 89 89 90 91 93 94 95 96 97 98 100 101 102 104 105 106 109 111 112 113 114 115 116 117 118 120 121 123 125 126 128 129 130 131 132 133 135 136 137 138 139 139 139 140 141 142 142 143 144 145 146 147 148 149 150 150 151 152 154 155 157 158 158 159 160 160 160 159 159 159 159 159 159
81 80 80 81 82 83 84 85 86 86 87 87 87 87 88 89 91 92 93 94 95 96 98 99 100 101 102 103 105 108 109 110 111 112 113 114 115 116 118 119 121 122 124 125 127 128 130 131 133 134 135 136 137 138 138 138 138 138 139 140 142 143 144 145 146 147 147 148 148 149 150 152 154 156 157 158 159 159 159 159 159 159 159 158 158
79 78 78 79 80 81 82 83 84 85 85 85 85 85 86 88 89 91 92 93 93 94 95 96 97 98 99 101 102 104 106 107 108 109 110 111 112 113 115 116 118 119 120 121 123 124 126 128 129 131 132 133 135 136 136 136 136 136 136 137 138 140 142 143 144 144 145 146 146 147 147 148 150 151 153 156 157 158 158 158 158 158 158 158 157
76 75 76 77 78 79 80 81 82 83 83 83 83 84 85 87 88 89 90 91 92 93 94 94 95 96 96 98 99 101 103 105 105 105 106 108 109 110 111 113 114 116 117 118 119 121 122 124 125 127 128 130 131 132 133 133 134 134 135 135 136 138 139 140 141 141 142 143 144 145 146 146 147 148 150 152 154 155 156 156 156 157 157 157 156
74 73 74 75 76 77 78 79 81 81 82 82 82 82 84 85 86 87 89 90 90 91 92 93 94 95 95 96 98 99 101 102 102 102 103 104 105 106 107 109 111 112 113 115 116 118 119 121 122 123 124 125 127 128 129 130 130 131 132 133 134 135 136 137 138 139 140 141 142 143 143 144 145 146 147 148 150 152 153 154 155 155 155 155 155
72 72 72 73 74 75 76 78 79 80 80 80 81 81 82 84 85 86 87 88 89 90 91 92 93 94 94 95 96 98 99 100 100 100 100 101 102 102 104 105 106 107 109 111 112 114 116 117 119 120 121 121 122 123 125 126 127 127 128 129 130 131 133 134 136 137 137 138 139 140 141 142 143 144 145 146 147 148 150 151 152 153 153 153 153
70 70 71 71 73 74 75 77 78 79 79 79 80 81 81 82 84 85 86 87 88 89 89 90 91 93 93 94 95 96 97 98 98 98 99 100 100 100 101 102 103 103 105 106 108 110 111 113 115 116 117 117 118 120 121 122 123 124 125 126 127 127 128 129 131 133 135 136 136 137 138 139 140 141 142 143 144 145 146 148 149 150 151 151 151
69 69 69 70 71 72 74 76 77 77 78 78 79 80 80 81 83 83 84 85 87 88 88 89 90 91 92 93 93 94 95 96 95 95 97 98 99 99 99 100 100 101 101 103 105 106 108 109 110 111 112 113 114 116 117 118 119 120 121 122 123 124 125 126 127 128 130 131 133 134 135 137 138 139 139 140 141 142 143 144 146 147 148 149 149
69 68 69 70 70 72 73 75 76 76 77 77 79 79 79 81 82 82 83 84 85 86 87 87 88 90 91 92 92 92 93 93 93 92 93 95 96 97 97 97 98 98 99 100 102 103 105 106 106 106 107 109 110 111 113 114 115 116 118 119 120 120 121 122 123 125 126 127 128 130 131 133 134 136 137 138 139 139 140 141 142 144 145 146 146
68 68 69 69 70 71 73 75 75 75 76 77 78 79 79 80 81 81 81 82 83 84 85 86 86 87 88 89 90 90 90 90 89 89 90 91 93 94 95 95 95 95 96 97 99 101 102 102 102 102 103 105 106 107 108 109 110 112 113 115 116 117 118 119 119 121 122 123 125 126 127 129 130 131 133 134 136 137 138 138 139 140 141 143 143
68 68 68 68 69 71 73 75 75 75 76 77 78 78 79 80 80 80 80 81 82 82 83 83 84 85 86 86 87 88 87 87 86 85 86 87 88 89 91 92 92 92 93 94 96 98 99 99 98 99 101 102 102 103 104 105 106 107 109 110 111 113 114 115 116 117 118 119 121 122 124 125 127 128 129 130 131 133 134 135 136 137 138 139 140
68 68 68 68 70 72 74 75 75 75 76 77 78 78 79 79 79 79 79 79 80 80 80 81 82 82 83 84 84 85 84 83 82 81 82 82 83 84 86 87 88 89 89 90 92 94 95 94 94 96 97 98 99 99 100 101 102 103 104 106 107 108 110 111 112 113 114 115 116 118 119 121 123 124 125 126 127 129 130 131 132 133 134 135 136
68 68 68 68 70 73 75 75 75 76 77 77 77 78 79 79 79 78 78 78 79 79 79 79 80 80 81 82 82 82 81 80 79 78 78 79 79 80 81 83 84 85 86 86 88 91 91 90 91 92 93 94 95 96 97 97 98 99 100 101 102 104 105 107 108 109 110 111 112 114 115 117 118 120 121 123 124 125 127 127 128 129 130 131 131
68 68 67 69 71 73 75 75 75 76 76 77 77 78 78 78 78 78 77 77 78 78 78 78 78 78 79 80 80 80 79 78 76 75 75 76 76 76 78 79 80 81 81 82 84 86 86 86 88 88 89 91 92 93 93 94 94 95 96 97 98 99 100 102 103 105 106 107 108 110 111 112 114 115 117 118 120 122 123 124 124 125 126 126 126
68 67 68 69 72 74 75 75 76 76 76 76 77 78 78 77 77 77 77 76 76 76 76 77 77 77 77 78 79 79 77 76 75 74 73 73 73 73 74 75 77 77 78 79 81 81 82 83 84 84 85 87 88 89 90 90 91 92 93 93 94 95 96 97 98 99 101 102 104 105 107 108 110 111 112 114 115 117 119 120 121 121 122 122 122
67 67 68 70 73 74 75 75 75 76 76 77 77 77 77 77 76 76 76 76 75 75 74 75 75 76 76 76 77 78 76 74 73 73 72 71 71 71 71 72 73 73 74 76 77 77 78 79 80 81 81 83 84 85 86 87 87 89 90 90 91 91 92 93 93 94 95 97 98 100 102 103 105 106 108 109 110 113 115 116 117 117 118 119 119
66 67 69 72 74 75 75 75 76 76 76 77 77 77 77 77 76 74 74 74 74 73 73 73 73 74 74 74 75 76 75 73 72 71 71 70 69 69 69 69 69 70 71 73 74 74 75 76 76 77 78 79 80 81 82 83 84 85 86 87 88 88 88 89 89 90 91 92 93 94 96 97 99 101 103 104 106 108 110 111 112 113 114 115 115
66 68 71 73 75 75 75 75 76 77 77 77 77 77 77 77 76 74 72 72 72 72 71 71 72 72 72 73 73 73 73 72 71 71 70 69 68 67 67 67 66 66 68 69 70 72 72 73 73 74 75 76 77 78 78 79 81 82 83 84 85 85 85 85 85 86 87 87 88 89 90 91 93 95 97 99 101 103 105 107 108 109 109 110 111
67 70 72 74 75 75 75 76 76 76 77 76 76 77 76 75 74 73 72 71 70 69 69 69 70 70 70 71 71 71 70 70 70 70 69 68 67 66 66 65 64 64 65 67 68 68 69 70 71 72 73 73 74 74 75 76 77 78 80 81 82 82 82 82 82 82 83 83 84 85 85 87 88 89 91 94 96 98 100 102 103 104 105 106 106
69 71 73 75 75 75 75 75 76 76 76 76 76 76 75 74 73 72 71 70 69 68 67 67 67 68 68 69 69 69 68 68 68 68 68 66 66 65 64 64 62 61 62 63 65 66 66 67 68 69 70 71 71 72 72 73 74 75 76 77 78 79 79 80 80 80 80 80 80 81 82 83 84 85 86 88 90 92 95 96 98 99 100 101 102
70 72 74 75 75 75 75 75 75 76 76 75 75 75 73 72 71 70 70 69 69 68 67 66 65 64 65 66 66 66 66 65 65 66 66 65 64 64 63 62 61 60 59 60 62 63 64 65 66 66 67 67 68 69 69 70 71 71 72 73 74 75 76 76 77 77 77 78 78 78 79 79 80 81 82 83 85 87 89 91 92 93 94 96 97
71 73 74 75 75 75 75 75 75 75 75 75 74 73 72 70 69 69 68 68 67 67 66 65 64 63 63 63 63 64 64 63 63 63 63 63 63 63 63 62 61 59 58 57 58 60 61 62 64 65 65 65 65 66 66 67 68 69 70 70 71 72 72 73 73 74 74 75 75 76 76 76 77 77 78 80 81 83 84 86 86 87 89 90 92
72 73 74 74 74 74 74 74 74 74 74 73 73 72 70 69 68 67 67 66 66 65 65 64 63 62 61 61 60 61 61 60 60 60 60 60 60 61 62 62 61 60 58 57 57 57 58 59 61 62 63 63 64 64 64 65 65 66 67 68 68 69 70 70 71 71 71 71 72 72 73 73 74 75 75 76 78 79 80 81 81 82 84 85 86
73 74 74 74 74 73 73 73 73 73 72 72 71 70 69 67 66 66 65 65 64 64 63 63 62 61 60 59 59 59 59 58 57 58 58 57 58 59 60 61 61 60 59 58 57 56 56 57 58 60 61 62 62 62 63 63 64 64 65 66 66 66 67 68 68 69 69 68 68 69 69 70 71 72 73 73 74 76 77 77 77 78 79 80 81
73 73 74 74 73 73 73 72 71 71 71 71 70 68 67 66 65 64 64 63 63 62 61 61 60 59 58 58 58 58 57 56 55 55 55 55 55 56 58 59 60 60 59 59 58 57 56 56 56 58 59 60 60 61 61 62 63 63 63 64 64 65 65 66 66 67 66 66 66 66 67 68 69 69 70 70 71 72 73 74 74 75 76 77 77
73 73 73 73 72 72 71 71 69 69 69 69 68 67 66 64 64 63 62 62 61 60 59 59 58 57 56 56 56 56 56 55 54 53 53 52 53 53 55 57 59 59 60 59 59 58 57 56 56 56 57 57 58 59 60 61 61 61 62 62 63 63 64 64 64 65 64 64 64 65 66 66 67 67 67 67 68 68 69 70 71 72 73 73 73
73 72 72 72 71 71 70 69 68 67 67 67 67 66 64 63 62 61 61 60 59 58 58 57 56 55 54 55 55 54 54 54 54 53 52 51 51 51 52 54 56 58 58 59 59 58 58 57 56 56 56 56 56 57 57 58 59 59 60 60 61 62 62 62 62 63 62 62 63 63 64 64 64 64 65 65 65 65 66 67 68 69 70 70 70
72 72 71 70 70 69 69 68 66 65 65 65 65 64 63 62 61 60 59 58 57 57 56 55 54 53 53 53 53 53 53 53 53 53 52 51 50 50 51 52 54 55 56 57 57 57 57 57 56 56 56 56 55 55 56 56 56 57 57 57 58 59 60 60 60 60 61 61 61 62 62 62 62 62 62 62 63 63 63 63 65 66 66 67 67
71 70 70 69 69 68 67 66 65 64 64 64 63 62 61 59 59 58 57 56 56 55 54 54 53 53 52 51 51 51 51 52 52 52 52 51 50 50 50 50 51 53 54 55 55 56 55 55 55 55 56 55 55 54 54 54 54 54 54 54 55 56 56 56 57 58 58 58 59 59 59 59 59 58 59 59 60 60 60 60 61 62 63 63 64
69 69 68 68 67 66 65 64 64 63 62 62 61 60 59 58 57 56 55 55 54 54 53 52 52 52 51 50 49 49 50 50 51 51 51 51 50 50 49 50 50 51 52 53 53 54 53 53 53 53 54 54 54 54 53 53 52 52 52 52 52 52 52 53 53 54 54 55 55 55 55 55 55 55 55 56 56 57 57 57 58 59 60 60 61
68 67 67 66 66 65 64 63 62 62 61 60 59 58 57 56 55 54 54 53 53 52 51 51 51 51 50 49 48 48 48 48 49 49 50 50 50 50 49 49 49 49 50 51 51 51 51 51 51 51 51 52 52 52 52 51 51 50 50 50 49 49 49 49 49 50 51 51 51 51 51 51 51 52 52 52 53 53 54 55 55 56 57 57 57
66 66 65 65 64 63 62 61 60 60 59 58 57 56 55 55 54 53 53 52 51 51 50 50 50 50 49 48 48 47 47 47 47 48 49 49 49 49 49 49 48 48 48 49 49 49 49 49 49 49 49 49 49 50 50 49 49 48 48 47 47 46 46 46 46 46 47 47 47 47 47 47 47 48 48 49 50 50 51 52 53 53 54 54 54
65 64 64 63 62 61 60 59 59 58 57 56 56 55 54 53 53 52 51 51 50 50 50 49 49 49 48 47 47 47 46 46 47 47 47 47 47 47 48 48 48 47 47 47 47 47 47 47 47 47 47 47 47 47 47 47 46 46 45 45 44 44 43 43 43 43 43 43 43 43 43 44 44 44 45 46 46 47 48 49 50 50 51 51 51
64 63 62 61 60 60 59 58 57 57 56 55 55 54 53 52 52 51 51 50 49 49 49 49 48 48 47 47 46 46 46 46 46 46 46 46 46 46 46 47 47 46 46 45 45 45 45 45 45 45 45 45 44 44 43 43 43 43 43 42 42 41 40 40 40 40 40 40 40 40 40 40 41 41 41 42 43 44 45 46 47 47 48 48 48
62 61 60 59 59 58 57 57 56 55 55 54 54 53 52 52 51 51 50 49 49 48 48 48 48 47 46 46 46 45 45 45 45 45 45 45 45 45 45 45 45 45 45 44 44 43 43 43 43 43 43 43 42 41 40 40 40 40 40 39 39 39 38 37 37 37 37 37 37 37 37 37 38 38 38 39 40 41 42 43 44 44 45 45 45
60 59 58 58 57 57 56 55 55 54 54 53 53 52 52 52 51 50 50 49 49 48 48 48 47 46 46 45 45 45 44 44 44 44 44 44 44 43 43 43 44 44 44 43 42 42 41 41 41 41 41 41 40 39 38 38 37 37 37 36 36 36 36 35 35 35 35 35 35 35 35 35 35 35 36 37 37 38 39 40 41 42 42 42 42
Wind_Direction
263 263 262 262 262 262 262 262 262 262 262 262 261 260 260 259 259 259 259 258 258 257 257 257 256 256 256 256 255 255 254 254 254 254 254 254 254 254 254 254 253 253 253 253 253 253 253 253 252 252 251 251 251 251 251 252 252 252 251 251 251 251 251 251 251 250 250 251 252 253 253 254 255 256 256 256 257 258 258 259 260 261 261 261 262
264 264 263 263 263 263 262 262 262 262 262 262 262 261 261 260 259 259 258 258 258 258 257 257 257 256 256 256 256 255 255 255 254 254 254 254 254 254 254 254 254 254 253 253 253 253 253 253 253 253 252 252 252 252 251 252 252 252 252 252 251 251 251 251 251 250 250 250 251 251 252 253 253 254 255 256 256 256 257 257 258 259 260 260 261
264 264 264 264 263 263 263 263 262 262 262 262 262 261 261 260 260 259 259 258 258 258 258 258 257 257 256 256 256 256 255 255 255 255 254 254 254 254 254 254 254 254 254 254 253 253 253 253 253 253 253 253 253 252 252 252 252 252 252 252 252 252 252 251 251 250 250 250 250 251 251 252 252 253 254 255 256 256 256 256 256 257 258 259 259
264 264 264 264 264 264 263 263 263 263 262 262 262 261 261 261 260 260 259 259 258 258 258 258 258 257 257 256 256 256 256 255 255 255 255 254 254 254 254 254 254 254 254 254 254 253 253 253 253 253 253 253 253 253 253 252 252 252 252 252 252 252 252 252 252 251 250 250 250 250 251 251 252 252 252 253 255 256 257 257 256 256 256 257 258
265 265 265 264 264 264 264 264 263 263 263 262 262 262 261 261 261 261 260 260 259 259 258 258 258 258 258 257 257 256 256 256 256 255 255 255 255 254 254 254 254 254 253 253 253 253 253 253 253 253 253 253 253 253 253 253 253 253 253 252 252 252 252 252 252 252 251 251 250 250 250 251 251 252 252 252 253 254 256 257 258 258 257 256 256
266 265 265 265 265 264 264 264 264 264 263 263 263 262 262 261 261 261 261 260 260 259 259 259 258 258 258 258 258 257 257 256 256 256 255 255 255 255 255 255 254 254 254 253 253 253 253 253 253 253 253 253 253 253 253 253 253 253 253 253 253 253 252 252 252 252 252 251 251 251 251 251 251 251 252 252 252 252 253 255 256 257 258 258 258
266 266 266 265 265 265 265 264 264 264 264 264 263 263 263 262 262 261 261 261 260 260 260 259 259 259 258 258 258 258 257 257 257 256 256 256 255 255 255 255 255 255 254 254 254 253 253 253 253 253 253 253 253 253 253 253 253 253 253 253 253 253 253 253 252 252 252 252 252 251 251 251 251 252 252 252 252 252 253 253 254 255 256 257 258
267 267 266 266 266 266 265 265 265 264 264 264 264 264 263 263 263 263 262 262 261 261 260 260 260 259 259 259 258 258 258 258 257 257 257 256 256 256 255 255 255 255 255 255 254 254 254 254 253 253 253 253 253 253 253 253 253 253 253 253 253 253 253 253 253 253 252 252 252 251 251 251 252 252 252 252 252 253 253 253 253 254 255 255 256
268 268 268 267 267 266 266 266 265 265 265 264 264 264 264 264 263 263 263 263 262 262 261 261 260 260 260 259 259 259 258 258 258 257 257 257 256 256 256 256 255 255 255 255 255 255 254 254 254 254 253 253 253 253 253 253 253 253 253 254 253 253 253 253 253 253 253 252 252 252 251 251 251 252 252 253 253 253 253 253 253 254 254 255 256
270 269 269 269 268 268 267 267 266 266 266 265 265 265 264 264 264 263 263 263 263 263 262 262 262 261 261 260 260 259 259 258 258 258 257 257 257 257 256 256 256 256 256 255 255 255 255 255 255 254 254 254 254 253 253 253 253 253 253 253 254 254 253 253 253 253 253 253 252 252 252 252 251 252 252 252 253 253 253 253 253 253 254 255 256
271 270 270 270 270 269 269 268 268 267 267 266 266 266 265 265 264 264 264 263 263 263 263 262 262 262 262 261 261 260 260 259 259 258 258 258 257 257 257 257 257 256 256 256 256 255 255 255 255 255 255 255 254 254 254 253 253 253 253 253 254 254 254 253 253 253 253 253 253 253 252 252 252 252 252 252 252 253 253 253 254 254 254 254 255
271 271 271 270 270 270 270 269 269 268 268 268 267 267 266 266 265 265 265 264 264 263 263 263 262 262 262 262 261 261 261 260 260 259 259 258 258 258 257 257 257 257 257 256 256 256 256 255 255 255 255 255 255 255 254 254 254 253 253 253 253 253 254 254 254 254 253 253 253 253 253 253 252 252 252 252 252 252 253 253 253 254 254 254 254
272 272 271 271 271 271 270 270 269 269 269 269 268 268 267 267 267 266 266 265 265 264 264 263 263 263 262 262 262 262 261 261 261 260 260 259 259 258 258 258 258 258 258 257 257 257 256 256 256 256 255 255 255 255 255 255 255 254 254 253 253 253 253 254 254 254 254 254 253 253 253 253 253 253 253 253 252 252 253 253 253 253 254 254 254
273 272 272 272 272 272 271 271 271 270 270 269 269 269 268 268 268 267 267 266 266 265 265 264 264 264 263 263 263 262 262 262 261 261 261 260 260 260 259 259 258 258 258 258 258 258 257 257 257 256 256 256 255 255 255 255 255 255 255 254 254 254 253 253 253 253 254 254 254 253 253 253 253 253 253 253 253 253 253 253 253 253 253 253 254
273 273 273 273 273 272 272 272 272 271 271 271 270 270 270 269 269 268 267 267 266 266 266 265 265 264 264 264 264 263 263 263 262 262 262 261 261 260 260 260 259 259 259 259 258 258 258 258 258 257 257 257 256 256 256 255 255 255 255 255 255 254 254 254 253 253 253 253 253 253 254 254 254 253 253 253 253 253 253 253 253 253 253 253 253
273 273 273 273 273 273 273 273 272 272 272 271 271 271 271 270 270 269 269 268 268 267 267 266 266 265 265 265 265 264 264 264 263 263 263 262 262 261 261 260 260 260 260 259 259 259 258 258 258 258 258 258 257 257 256 256 255 255 255 255 255 255 255 254 254 254 253 253 253 253 253 253 254 254 254 253 253 253 253 253 253 253 253 253 253
274 274 274 274 274 274 274 273 273 273 273 272 272 272 272 271 271 270 270 269 269 268 268 267 267 267 266 266 265 265 265 264 264 264 263 263 263 262 262 261 261 260 260 260 260 259 259 259 259 258 258 258 258 258 257 257 256 256 256 255 255 255 255 255 254 254 254 254 253 253 253 253 253 253 253 254 254 253 253 253 253 253 253 253 253
274 275 275 275 275 275 274 274 274 274 273 273 273 273 273 272 272 271 271 271 270 270 270 269 268 268 268 267 267 266 266 265 265 264 264 263 263 263 263 262 262 262 261 261 260 260 260 259 259 259 259 258 258 258 258 258 257 257 256 256 256 255 255 255 255 255 255 254 254 254 253 253 253 253 253 253 254 254 254 253 253 253 253 253 253
275 276 276 275 275 275 275 275 275 275 274 274 274 274 273 273 273 273 273 272 272 272 271 271 270 270 269 269 268 268 267 267 266 265 265 264 264 263 263 263 263 263 262 262 261 261 260 260 260 259 259 259 259 259 259 258 258 257 257 257 256 256 256 255 255 255 255 255 254 254 254 253 253 253 253 253 253 253 254 254 253 253 253 253 253
277 277 276 276 276 276 276 276 276 275 275 275 275 275 274 274 274 274 274 274 274 273 273 273 272 271 271 270 270 269 269 268 268 267 266 266 265 264 264 264 263 263 263 262 262 262 261 261 260 260 260 259 259 259 259 259 259 258 258 257 257 256 256 256 256 256 255 255 255 254 254 254 254 253 253 253 253 253 253 253 253 253 253 253 253
277 277 277 277 277 276 276 276 276 276 276 276 276 276 276 276 276 275 275 275 275 274 274 274 273 273 272 271 271 270 270 270 269 269 268 268 267 266 265 265 264 264 263 263 263 262 262 262 261 261 260 260 260 260 259 259 259 259 258 258 257 257 257 256 256 256 256 255 255 255 255 254 254 254 253 253 253 253 253 253 253 253 253 253 253
278 277 277 277 277 277 277 277 277 277 277 278 277 277 277 277 277 277 277 277 276 276 275 275 274 274 273 272 272 271 271 271 270 270 270 269 268 268 267 266 266 265 265 264 263 263 262 262 262 261 261 261 260 260 260 260 259 259 259 258 258 258 257 257 257 256 256 256 256 255 255 255 254 254 254 253 253 253 253 253 253 253 253 253 253
278 278 278 278 278 278 278 278 278 278 278 279 278 278 278 278 278 278 278 278 278 277 277 276 276 275 274 274 273 272 272 271 271 271 271 270 270 269 268 267 267 266 266 265 265 264 263 263 262 262 262 261 261 260 260 260 260 259 259 259 258 258 258 257 257 257 257 256 256 256 256 255 255 255 254 254 254 253 253 253 253 253 253 253 253
279 279 279 279 279 279 279 279 279 279 280 280 280 280 280 280 280 279 279 279 279 278 278 277 277 276 275 275 274 273 273 272 272 271 271 271 270 270 269 268 268 267 267 266 266 265 264 264 263 263 262 262 261 261 260 260 260 259 259 259 259 258 258 258 257 257 257 257 257 256 256 256 255 255 255 255 254 254 253 253 253 253 253 253 253
280 280 280 280 280 280 280 280 280 281 281 281 281 282 282 281 281 281 281 280 280 279 279 278 278 277 277 276 275 274 273 273 272 272 271 271 270 270 270 269 268 268 267 266 266 266 265 265 264 264 263 262 262 261 261 260 260 259 259 259 259 259 258 258 258 257 257 257 257 257 256 256 256 255 255 255 255 255 254 254 253 253 253 253 253
281 280 281 281 282 282 281 281 282 283 283 283 283 284 283 283 283 282 282 282 281 281 280 280 279 279 278 277 276 275 274 274 273 272 271 271 270 270 270 269 269 268 267 267 266 266 266 266 265 265 264 264 263 262 262 261 260 260 259 259 259 258 258 258 258 257 257 257 257 256 256 256 256 256 256 256 255 255 255 254 254 253 253 253 253
281 281 282 283 283 283 283 283 284 284 285 285 285 285 285 285 285 284 284 284 283 282 282 281 281 280 279 278 278 277 276 275 274 273 272 271 271 270 270 269 269 268 268 267 267 266 266 266 266 265 265 265 264 263 263 262 261 261 260 259 259 258 258 258 258 258 257 257 257 256 256 256 256 256 256 256 256 256 255 255 255 254 254 253 253
282 283 284 284 284 284 284 285 286 286 286 286 287 287 287 287 286 286 286 285 285 284 283 283 282 281 281 280 279 278 277 276 276 275 274 272 271 271 270 270 269 269 268 268 267 267 266 266 266 265 265 265 265 264 264 263 263 262 261 260 259 259 258 258 258 258 257 257 257 257 256 256 256 256 256 256 256 256 256 256 255 255 255 254 254
284 285 286 286 286 285 286 286 287 287 288 288 288 288 288 288 288 288 287 287 286 286 285 284 283 283 282 281 280 280 279 278 277 276 275 274 272 272 271 270 269 269 269 268 267 267 267 267 266 265 265 265 265 265 265 264 264 263 262 262 261 260 259 258 258 258 257 257 257 257 257 257 256 256 256 256 256 256 256 256 256 256 255 255 255
285 287 287 287 287 287 287 288 289 289 289 290 290 289 289 289 289 289 288 288 287 286 286 285 284 284 283 282 281 281 280 280 279 277 276 275 273 272 272 271 270 270 269 268 268 267 267 267 266 266 266 265 265 265 265 264 264 264 263 263 262 261 260 260 259 258 258 257 257 257 257 257 257 257 256 256 256 256 257 257 257 256 256 256 256
287 288 289 288 288 288 289 290 290 291 291 291 291 291 290 290 289 289 289 288 288 287 286 286 285 284 283 283 282 282 281 280 280 279 277 276 275 273 272 271 271 271 270 269 269 268 267 267 267 266 266 265 265 265 265 265 264 264 264 263 263 262 262 261 260 260 259 258 257 257 257 257 257 257 257 257 257 257 257 256 256 256 256 256 256
290 290 290 290 289 290 291 291 292 292 292 292 292 292 291 291 290 290 289 289 288 287 287 286 285 284 284 283 283 283 282 282 281 280 278 277 276 275 273 272 271 271 270 270 269 269 268 267 267 267 266 266 265 265 265 265 265 264 264 264 264 263 263 262 262 261 261 260 259 258 257 257 257 257 257 257 257 257 257 257 256 256 256 256 256
292 291 291 291 291 291 292 293 293 293 293 293 293 292 292 291 291 290 290 289 288 288 287 286 285 285 284 284 283 283 283 282 282 281 280 279 277 276 275 273 272 271 271 270 270 269 269 269 268 267 267 266 266 265 265 265 265 265 265 265 265 264 264 263 263 262 262 261 260 260 259 258 257 257 257 257 257 257 257 257 257 256 256 256 256
293 292 292 292 292 293 293 294 294 294 294 293 293 292 292 292 292 291 290 289 288 288 287 286 286 285 285 284 283 283 283 282 282 281 280 280 279 277 276 275 273 272 271 271 270 270 269 269 269 268 268 267 266 266 265 265 265 265 265 265 265 265 265 264 263 263 262 262 261 261 260 259 258 258 257 257 257 257 257 257 257 257 256 256 256
293 293 292 292 293 293 294 294 294 294 294 294 293 293 292 292 292 292 291 290 289 288 287 286 286 285 285 284 284 283 283 282 282 281 281 280 279 278 277 276 274 273 272 272 271 271 270 269 269 269 268 268 268 267 267 266 266 265 265 265 265 265 265 265 264 264 263 263 262 261 261 260 260 259 258 257 257 257 257 257 257 257 257 256 256
294 293 293 293 294 294 295 295 295 294 294 294 293 293 293 293 293 292 292 291 290 289 288 287 286 285 285 284 284 283 283 282 282 282 281 281 280 279 278 277 275 273 272 271 271 271 271 271 270 269 269 269 268 268 268 268 267 267 266 266 265 265 265 264 264 264 264 263 263 262 261 261 260 260 259 259 258 257 257 257 257 257 256 256 256
294 294 294 294 294 295 295 295 295 294 294 294 294 293 294 294 293 293 292 291 291 290 289 288 287 286 285 284 283 283 282 282 282 281 281 281 281 280 279 278 277 275 274 272 271 271 271 271 271 271 270 270 269 269 269 268 268 268 267 267 266 266 265 265 264 264 263 263 263 262 262 262 261 260 260 259 259 259 258 257 257 257 256 256 256
295 294 294 295 295 296 296 295 295 295 295 294 294 294 294 294 294 293 293 292 291 290 289 289 288 287 286 285 284 283 282 282 281 281 281 280 280 280 279 279 278 277 276 274 273 272 271 271 271 271 271 271 270 270 269 269 269 268 268 267 267 267 267 266 266 265 264 263 263 262 262 262 261 261 260 260 259 259 259 258 258 257 257 256 256
295 295 295 295 296 296 296 295 295 295 295 295 294 295 295 295 294 294 293 292 291 290 290 289 288 288 287 286 285 283 282 282 281 281 280 280 280 280 280 279 279 278 278 276 275 273 272 271 271 271 271 271 271 271 270 270 269 269 268 268 268 267 267 267 266 266 265 265 264 263 263 262 261 261 260 260 260 260 259 259 259 258 258 257 256
296 296 296 296 296 296 296 295 296 296 296 295 295 295 295 295 294 294 293 292 291 291 290 289 288 288 287 287 285 284 283 282 281 281 280 280 280 280 280 280 280 279 279 278 277 276 274 273 272 272 271 271 271 271 271 270 270 269 269 269 268 268 267 267 267 266 266 266 265 265 264 263 262 261 260 260 259 259 259 259 259 259 258 257 257
296 296 296 296 296 296 296 296 296 296 296 296 296 296 295 295 295 294 293 292 292 291 290 289 289 288 288 287 286 285 284 283 282 281 280 280 279 279 279 279 279 280 280 279 279 278 277 276 274 273 272 272 271 271 271 271 270 270 269 269 269 268 268 268 267 267 267 266 266 265 264 263 263 262 262 261 260 259 259 259 259 258 258 258 257
297 297 297 297 297 297 297 297 297 297 296 296 296 296 296 295 295 294 293 293 292 291 290 290 289 289 288 287 286 286 285 284 283 282 281 280 279 278 278 278 278 279 279 279 279 279 279 278 277 276 274 273 272 271 271 270 270 269 269 269 269 268 268 268 268 268 267 267 266 265 264 264 263 263 262 262 261 260 259 259 258 258 258 257 257
297 297 297 297 297 297 297 297 297 297 297 296 296 296 296 295 295 294 294 293 292 292 291 290 290 289 288 287 287 286 286 285 284 284 282 281 280 279 278 277 277 277 278 278 278 279 279 279 278 277 276 275 274 273 272 271 270 270 269 269 268 268 268 268 268 268 267 267 266 266 265 265 264 263 263 262 261 260 260 259 258 258 258 257 256
297 297 298 298 298 298 298 298 298 298 297 296 296 296 296 296 295 295 294 293 293 292 291 291 290 289 288 287 287 286 286 285 285 284 283 283 281 280 279 278 277 277 277 278 278 278 278 278 278 278 277 277 276 275 273 272 271 271 270 269 269 268 268 268 267 267 266 266 266 266 265 265 264 263 263 262 261 261 260 259 258 257 257 257 256
297 298 298 298 298 298 298 298 298 298 297 296 296 296 296 296 295 295 294 293 293 292 291 291 290 289 288 288 287 286 286 285 285 284 284 283 282 281 280 279 278 278 278 278 278 278 278 277 277 277 277 277 277 276 275 274 273 272 271 270 269 269 268 268 267 266 266 265 265 265 265 264 264 263 262 261 261 260 259 259 258 257 257 256 256
298 298 298 299 299 299 299 298 298 297 296 296 296 296 296 296 295 295 294 293 293 292 292 291 290 289 289 289 288 287 286 285 285 284 284 283 283 282 281 280 279 279 278 278 278 278 278 278 277 277 277 276 277 276 276 276 275 274 273 272 271 270 269 268 267 267 266 265 265 264 264 263 263 262 261 260 260 259 258 258 257 257 256 256 256
299 299 299 299 299 299 298 298 297 297 297 297 297 296 296 296 295 294 294 293 293 292 292 291 290 290 290 289 289 288 287 286 285 284 284 283 283 283 282 281 281 280 279 278 278 278 278 278 277 277 277 276 276 276 277 276 276 275 274 273 272 271 270 269 268 267 266 266 265 264 263 262 261 260 260 259 258 258 257 257 256 256 256 256 255
300 300 300 299 299 299 298 298 297 297 297 297 296 296 296 295 295 294 294 293 293 293 292 291 290 290 290 290 289 288 287 287 285 285 284 283 283 283 283 282 281 281 280 279 279 278 278 278 278 278 277 276 276 276 276 276 276 275 275 274 273 272 271 270 269 267 267 266 265 264 263 261 260 259 258 257 257 256 256 256 255 255 255 255 254
300 300 300 299 299 299 298 298 298 297 297 297 296 296 296 295 295 294 294 293 293 293 292 292 291 291 291 290 289 289 288 287 286 285 285 284 284 283 283 282 282 282 281 280 280 279 279 279 278 278 278 277 277 276 276 276 275 275 274 274 273 272 271 270 269 268 266 265 265 263 262 261 259 258 257 256 255 255 255 254 254 254 254 253 253
300 300 300 299 299 299 298 298 298 297 297 297 296 296 296 295 295 294 294 294 293 293 292 292 292 291 291 290 290 289 288 287 287 286 286 285 284 284 283 283 282 282 281 281 280 280 280 279 279 279 278 278 277 277 276 275 275 275 274 274 273 272 271 270 269 267 266 265 264 263 262 260 259 258 256 255 254 254 253 253 253 253 252 252 252
301 300 300 299 299 299 298 298 298 297 297 297 296 296 295 295 294 294 294 294 294 293 293 292 292 292 292 291 290 289 288 288 287 287 286 285 285 284 284 283 283 282 282 281 281 281 280 280 279 279 278 278 278 277 277 276 275 274 274 273 273 272 271 270 268 267 266 265 263 262 261 260 258 257 255 254 253 252 252 251 251 251 251 251 251
Height
10306 10306 10306 10306 10306 10307 10307 10307 10308 10309 10310 10311 10312 10314 10315 10317 10318 10319 10321 10323 10325 10326 10328 10330 10332 10334 10336 10339 10342 10344 10346 10348 10351 10353 10355 10358 10360 10363 10365 10367 10370 10372 10374 10377 10380 10383 10385 10388 10392 10396 10399 10402 10405 10408 10412 10414 10418 10421 10425 10430 10434 10438 10444 10450 10459 10469 10467 10459 10459 10461 10459 10460 10463 10461 10463 10469 10473 10474 10477 10480 10482 10485 10487 10490 10493
10290 10290 10290 10290 10290 10290 10291 10291 10291 10292 10292 10293 10294 10295 10297 10298 10300 10301 10303 10304 10306 10307 10309 10311 10313 10315 10317 10319 10322 10324 10326 10328 10331 10333 10335 10338 10340 10343 10345 10347 10349 10352 10354 10357 10359 10363 10365 10368 10371 10374 10377 10381 10384 10387 10391 10394 10397 10400 10403 10408 10413 10416 10422 10429 10436 10446 10451 10447 10443 10444 10444 10444 10447 10447 10446 10450 10455 10457 10461 10464 10467 10470 10472 10474 10477
10274 10274 10274 10274 10274 10274 10274 10275 10275 10275 10276 10276 10277 10278 10279 10280 10282 10283 10284 10286 10287 10289 10290 10292 10294 10296 10298 10299 10302 10304 10306 10308 10310 10313 10315 10318 10320 10322 10325 10327 10329 10331 10333 10336 10339 10342 10345 10348 10350 10353 10356 10359 10362 10366 10370 10373 10376 10379 10382 10385 10391 10395 10399 10406 10414 10421 10430 10433 10428 10427 10428 10428 10430 10432 10431 10433 10437 10439 10442 10447 10452 10455 10456 10458 10461
10260 10259 10259 10259 10259 10259 10259 10259 10259 10259 10259 10260 10261 10261 10262 10263 10264 10265 10266 10268 10269 10270 10272 10273 10275 10276 10278 10280 10282 10284 10286 10288 10290 10292 10295 10297 10299 10302 10303 10306 10308 10310 10312 10314 10317 10320 10324 10327 10329 10332 10335 10338 10340 10344 10348 10351 10354 10357 10361 10364 10368 10374 10378 10382 10390 10398 10406 10413 10413 10410 10410 10412 10412 10413 10415 10419 10422 10423 10424 10427 10433 10439 10442 10444 10446
10246 10245 10245 10244 10244 10244 10244 10244 10243 10243 10243 10244 10245 10245 10246 10247 10247 10248 10249 10250 10251 10253 10254 10255 10256 10257 10259 10260 10262 10264 10267 10269 10270 10272 10274 10277 10279 10281 10283 10284 10286 10288 10291 10293 10295 10299 10302 10305 10308 10310 10314 10317 10319 10322 10325 10329 10332 10335 10339 10343 10346 10351 10357 10360 10366 10373 10381 10390 10395 10394 10392 10394 10395 10395 10396 10401 10407 10409 10408 10409 10413 10418 10423 10428 10432
10232 10231 10230 10230 10230 10229 10229 10228 10228 10227 10228 10228 10229 10229 10230 10231 10231 10232 10232 10233 10234 10235 10236 10237 10238 10239 10240 10241 10243 10245 10247 10249 10250 10252 10254 10256 10258 10260 10262 10263 10265 10267 10269 10271 10273 10277 10280 10283 10285 10288 10292 10295 10297 10300 10302 10305 10310 10313 10317 10321 10324 10329 10334 10339 10343 10349 10357 10365 10372 10375 10375 10375 10376 10378 10377 10380 10388 10393 10393 10395 10398 10399 10401 10406 10412
10218 10217 10216 10216 10215 10215 10214 10213 10212 10212 10212 10213 10213 10214 10214 10214 10215 10215 10216 10216 10217 10217 10218 10219 10220 10220 10221 10222 10224 10225 10227 10229 10230 10232 10234 10236 10238 10240 10241 10242 10243 10245 10246 10248 10251 10255 10258 10260 10263 10265 10269 10272 10275 10278 10280 10283 10286 10291 10294 10298 10302 10306 10311 10316 10321 10326 10332 10340 10347 10352 10355 10356 10357 10359 10359 10360 10366 10373 10375 10378 10383 10384 10383 10387 10391
10203 10202 10202 10201 10201 10200 10199 10198 10197 10197 10197 10198 10198 10198 10198 10198 10198 10199 10199 10200 10200 10201 10201 10201 10202 10202 10203 10204 10205 10207 10208 10209 10210 10212 10214 10216 10218 10220 10221 10222 10222 10223 10223 10226 10229 10232 10235 10238 10241 10243 10246 10249 10253 10255 10258 10261 10264 10268 10272 10275 10280 10284 10288 10293 10298 10302 10308 10315 10321 10327 10333 10337 10338 10339 10340 10340 10344 10351 10356 10359 10364 10366 10366 10369 10374
10189 10188 10188 10187 10186 10185 10184 10183 10182 10181 10182 10182 10183 10183 10183 10183 10182 10183 10183 10183 10183 10184 10184 10184 10184 10184 10184 10185 10186 10188 10189 10189 10191 10192 10194 10196 10198 10200 10201 10201 10201 10201 10202 10204 10207 10210 10213 10216 10218 10220 10223 10226 10229 10232 10235 10238 10242 10247 10250 10253 10257 10262 10266 10270 10274 10279 10284 10290 10296 10303 10309 10315 10318 10319 10320 10320 10322 10329 10335 10339 10344 10348 10348 10349 10353
10175 10174 10174 10173 10172 10170 10169 10168 10167 10166 10167 10167 10167 10167 10167 10166 10166 10166 10167 10167 10166 10166 10166 10166 10167 10166 10166 10166 10167 10168 10169 10170 10171 10172 10174 10176 10178 10180 10181 10181 10180 10180 10181 10183 10185 10187 10190 10194 10196 10197 10200 10203 10206 10209 10212 10216 10220 10225 10229 10231 10234 10238 10243 10247 10251 10255 10260 10265 10272 10278 10284 10291 10296 10298 10299 10300 10302 10307 10314 10317 10323 10329 10331 10332 10333
10162 10161 10160 10159 10157 10156 10154 10153 10152 10151 10152 10152 10152 10152 10151 10150 10150 10150 10150 10150 10150 10149 10149 10149 10149 10149 10148 10147 10148 10149 10150 10151 10151 10153 10154 10157 10159 10161 10161 10160 10158 10158 10160 10163 10164 10166 10169 10172 10174 10175 10177 10180 10183 10186 10189 10193 10198 10202 10206 10209 10212 10215 10219 10224 10228 10232 10236 10242 10248 10254 10259 10266 10272 10274 10277 10281 10282 10286 10292 10296 10301 10307 10311 10315 10318
10149 10148 10147 10145 10144 10142 10140 10138 10137 10137 10137 10137 10137 10136 10135 10135 10134 10133 10133 10133 10133 10132 10132 10132 10131 10131 10130 10129 10129 10130 10130 10131 10132 10133 10135 10137 10139 10142 10142 10140 10137 10137 10140 10142 10143 10145 10148 10150 10152 10154 10155 10157 10160 10163 10166 10171 10175 10179 10183 10187 10190 10193 10196 10200 10204 10209 10213 10219 10226 10231 10235 10241 10247 10251 10254 10259 10262 10265 10270 10275 10279 10285 10290 10295 10301
10137 10135 10133 10132 10131 10128 10126 10124 10123 10123 10123 10123 10122 10121 10120 10119 10118 10117 10117 10116 10116 10115 10115 10114 10114 10113 10112 10111 10110 10110 10111 10112 10112 10114 10116 10117 10119 10122 10123 10121 10119 10119 10120 10122 10124 10126 10127 10129 10130 10131 10133 10135 10137 10140 10144 10148 10152 10156 10160 10165 10168 10171 10174 10177 10181 10186 10190 10196 10203 10209 10212 10216 10223 10228 10230 10234 10240 10245 10249 10253 10257 10262 10269 10275 10279
10124 10122 10120 10119 10118 10115 10112 10110 10109 10109 10109 10108 10107 10106 10106 10105 10103 10101 10100 10100 10099 10098 10098 10097 10096 10096 10095 10093 10091 10091 10092 10093 10093 10095 10097 10098 10100 10102 10103 10102 10100 10100 10101 10101 10104 10106 10107 10108 10109 10109 10111 10113 10115 10118 10122 10126 10129 10133 10138 10142 10146 10150 10152 10155 10159 10162 10167 10173 10179 10186 10190 10192 10198 10205 10208 10209 10215 10222 10227 10232 10236 10239 10246 10253 10258
10111 10109 10108 10107 10105 10102 10099 10097 10095 10095 10094 10093 10093 10092 10091 10090 10087 10085 10084 10084 10083 10082 10081 10080 10079 10079 10078 10077 10074 10072 10073 10074 10075 10076 10077 10078 10080 10081 10082 10081 10081 10081 10081 10082 10084 10086 10086 10087 10088 10088 10090 10091 10093 10096 10100 10104 10108 10112 10116 10119 10123 10127 10130 10133 10136 10139 10144 10150 10156 10162 10168 10170 10174 10181 10185 10186 10190 10197 10203 10208 10214 10218 10223 10229 10235
10098 10097 10097 10095 10092 10089 10086 10083 10082 10081 10080 10079 10079 10079 10077 10075 10072 10070 10069 10068 10067 10066 10064 10063 10063 10062 10061 10060 10058 10055 10055 10056 10057 10057 10058 10059 10060 10061 10061 10060 10061 10061 10061 10062 10064 10065 10065 10065 10066 10068 10068 10069 10071 10073 10077 10082 10086 10091 10095 10098 10101 10105 10108 10111 10113 10117 10121 10127 10133 10140 10146 10149 10150 10154 10159 10162 10165 10172 10178 10184 10192 10197 10200 10206 10214
10086 10086 10085 10083 10080 10077 10073 10070 10069 10067 10066 10066 10066 10065 10063 10060 10057 10055 10054 10052 10051 10050 10048 10047 10047 10047 10045 10044 10042 10038 10036 10038 10039 10040 10040 10040 10041 10042 10041 10040 10041 10041 10041 10042 10043 10044 10044 10045 10045 10046 10047 10048 10049 10051 10054 10059 10065 10070 10074 10078 10081 10082 10084 10087 10090 10094 10100 10105 10111 10117 10122 10126 10129 10131 10135 10137 10141 10147 10154 10161 10170 10174 10175 10184 10194
10075 10075 10074 10071 10068 10064 10061 10058 10056 10054 10053 10053 10053 10052 10050 10046 10043 10041 10039 10037 10036 10035 10033 10031 10031 10031 10030 10027 10025 10022 10018 10019 10022 10022 10022 10022 10023 10023 10022 10021 10021 10021 10022 10023 10023 10023 10023 10023 10024 10025 10026 10027 10028 10029 10032 10037 10043 10050 10054 10057 10060 10061 10061 10064 10068 10074 10079 10082 10088 10093 10097 10102 10107 10110 10114 10116 10117 10121 10127 10136 10145 10148 10151 10162 10174
10064 10065 10062 10059 10056 10052 10048 10045 10043 10041 10040 10040 10039 10038 10035 10032 10029 10027 10025 10023 10021 10020 10018 10016 10014 10015 10014 10011 10008 10006 10002 10001 10003 10005 10005 10005 10005 10006 10004 10003 10002 10002 10003 10003 10003 10002 10002 10002 10003 10005 10006 10007 10007 10009 10012 10016 10022 10028 10032 10034 10037 10039 10040 10043 10048 10054 10057 10060 10064 10069 10073 10079 10084 10088 10093 10095 10096 10099 10103 10110 10119 10123 10127 10139 10149
10054 10053 10050 10047 10044 10040 10036 10033 10030 10029 10028 10027 10026 10025 10022 10018 10016 10014 10011 10009 10007 10005 10003 10001 9998 9998 9997 9995 9992 9990 9987 9984 9985 9987 9987 9987 9987 9988 9986 9985 9984 9984 9984 9984 9983 9982 9981 9982 9983 9984 9985 9987 9989 9990 9993 9996 10000 10005 10009 10012 10015 10018 10019 10022 10027 10031 10034 10037 10042 10045 10050 10056 10060 10065 10070 10073 10075 10078 10081 10086 10093 10098 10104 10114 10123
10043 10041 10039 10036 10033 10029 10025 10022 10019 10017 10016 10015 10013 10011 10009 10006 10003 10000 9998 9995 9993 9991 9988 9986 9983 9981 9980 9979 9976 9973 9971 9969 9969 9970 9970 9969 9969 9969 9968 9967 9967 9967 9966 9965 9963 9962 9961 9962 9963 9963 9965 9968 9971 9973 9974 9975 9978 9983 9987 9989 9992 9997 9999 10002 10006 10008 10010 10016 10021 10024 10028 10033 10036 10041 10046 10051 10054 10057 10061 10064 10070 10075 10080 10089 10098
10032 10030 10028 10025 10021 10018 10014 10010 10007 10006 10004 10003 10001 9998 9996 9993 9990 9987 9984 9981 9978 9976 9974 9971 9968 9965 9963 9962 9960 9958 9956 9954 9954 9954 9953 9951 9950 9951 9950 9949 9949 9949 9949 9947 9944 9943 9943 9943 9943 9944 9946 9950 9953 9953 9954 9955 9958 9962 9965 9968 9971 9975 9979 9982 9985 9987 9989 9994 9999 10002 10006 10009 10013 10018 10023 10027 10032 10035 10039 10044 10048 10052 10057 10064 10073
10020 10019 10017 10014 10011 10007 10003 10000 9997 9995 9993 9991 9988 9986 9984 9981 9977 9974 9972 9968 9964 9961 9959 9956 9953 9949 9947 9945 9944 9942 9940 9938 9939 9940 9937 9933 9932 9932 9932 9932 9932 9932 9932 9929 9926 9925 9925 9924 9924 9926 9929 9932 9932 9933 9934 9937 9939 9941 9944 9947 9951 9954 9957 9961 9965 9967 9969 9972 9976 9981 9984 9987 9990 9995 9999 10003 10008 10013 10018 10023 10027 10030 10034 10040 10048
10009 10008 10006 10003 10000 9996 9992 9989 9986 9984 9982 9979 9976 9974 9972 9968 9965 9962 9959 9955 9951 9947 9944 9942 9938 9935 9931 9929 9927 9926 9925 9923 9924 9925 9922 9917 9915 9914 9914 9914 9915 9915 9914 9912 9909 9907 9906 9905 9907 9910 9912 9912 9912 9913 9916 9918 9921 9922 9924 9927 9930 9934 9937 9941 9944 9947 9950 9953 9955 9959 9963 9965 9967 9972 9976 9979 9984 9990 9995 10000 10005 10009 10012 10018 10025
9998 9997 9995 9992 9989 9985 9981 9977 9975 9973 9971 9967 9964 9961 9959 9955 9952 9949 9946 9942 9937 9933 9930 9927 9924 9920 9917 9913 9911 9910 9909 9908 9909 9910 9906 9902 9900 9898 9896 9896 9897 9898 9897 9895 9892 9890 9888 9888 9892 9894 9893 9892 9893 9896 9897 9899 9902 9904 9906 9908 9910 9913 9917 9920 9924 9927 9930 9933 9936 9939 9941 9943 9945 9950 9954 9957 9962 9967 9971 9976 9982 9987 9991 9996 10003
9988 9986 9984 9982 9979 9974 9969 9966 9964 9962 9959 9955 9952 9949 9945 9942 9938 9936 9933 9929 9924 9920 9917 9913 9910 9906 9902 9899 9896 9893 9892 9893 9894 9894 9891 9888 9886 9883 9881 9879 9880 9880 9880 9879 9877 9873 9871 9874 9877 9877 9875 9875 9877 9878 9879 9881 9883 9885 9888 9890 9892 9894 9897 9901 9904 9908 9911 9914 9917 9919 9921 9923 9925 9929 9933 9937 9940 9944 9947 9951 9959 9965 9969 9974 9982
9977 9975 9974 9972 9968 9962 9958 9955 9953 9951 9947 9943 9940 9936 9932 9928 9925 9922 9919 9915 9910 9906 9903 9899 9896 9892 9888 9884 9882 9879 9877 9878 9879 9878 9876 9874 9872 9870 9867 9864 9864 9863 9863 9864 9861 9857 9857 9861 9862 9860 9859 9859 9860 9861 9862 9863 9865 9867 9870 9872 9874 9876 9879 9882 9885 9888 9892 9895 9898 9900 9902 9904 9906 9909 9912 9916 9920 9922 9924 9929 9936 9942 9946 9951 9960
9966 9965 9964 9961 9956 9951 9946 9944 9941 9938 9934 9931 9927 9923 9919 9915 9911 9908 9905 9901 9897 9893 9890 9886 9883 9879 9874 9870 9867 9864 9863 9864 9864 9863 9861 9859 9858 9856 9853 9851 9849 9847 9848 9849 9845 9841 9843 9848 9846 9844 9845 9844 9843 9844 9846 9847 9848 9850 9852 9854 9856 9858 9861 9864 9867 9870 9873 9876 9879 9882 9884 9886 9888 9890 9893 9896 9900 9902 9903 9908 9914 9920 9924 9929 9938
9955 9955 9953 9950 9944 9939 9935 9933 9930 9926 9922 9919 9915 9910 9906 9903 9899 9894 9891 9888 9884 9879 9876 9872 9869 9866 9862 9857 9853 9850 9849 9849 9849 9848 9847 9845 9844 9842 9839 9837 9835 9834 9835 9835 9830 9827 9831 9832 9830 9830 9831 9830 9829 9829 9830 9831 9832 9833 9835 9836 9838 9841 9843 9846 9849 9853 9856 9859 9862 9864 9866 9868 9870 9873 9876 9878 9881 9882 9884 9888 9894 9899 9904 9909 9917
9945 9945 9942 9938 9932 9928 9924 9921 9917 9914 9910 9906 9902 9897 9893 9890 9886 9882 9878 9875 9871 9867 9863 9859 9855 9852 9848 9844 9840 9836 9836 9836 9834 9833 9832 9831 9830 9829 9826 9824 9822 9822 9821 9820 9817 9817 9818 9817 9816 9817 9817 9815 9815 9815 9815 9816 9817 9818 9819 9820 9822 9824 9826 9829 9832 9836 9839 9842 9845 9847 9849 9851 9853 9855 9859 9861 9863 9864 9866 9870 9875 9879 9884 9890 9897
9936 9934 9931 9925 9920 9916 9913 9909 9906 9902 9898 9894 9889 9884 9880 9877 9873 9870 9866 9861 9858 9855 9852 9847 9842 9839 9836 9832 9826 9823 9822 9823 9821 9819 9818 9817 9816 9815 9813 9811 9811 9810 9808 9805 9804 9805 9805 9803 9803 9804 9803 9802 9802 9802 9802 9803 9803 9803 9804 9805 9806 9809 9811 9812 9816 9819 9822 9825 9828 9830 9833 9835 9837 9839 9842 9844 9846 9847 9848 9851 9856 9861 9865 9871 9877
9927 9923 9918 9913 9908 9904 9901 9897 9894 9890 9885 9881 9877 9872 9867 9863 9860 9858 9855 9850 9845 9842 9839 9836 9831 9827 9823 9820 9815 9810 9809 9809 9808 9806 9805 9803 9802 9801 9800 9799 9800 9798 9796 9793 9792 9791 9791 9791 9791 9790 9790 9790 9789 9789 9789 9789 9789 9790 9790 9790 9791 9794 9797 9798 9800 9803 9805 9808 9811 9814 9817 9819 9821 9823 9825 9827 9829 9830 9831 9833 9837 9842 9848 9853 9858
9917 9911 9906 9901 9896 9892 9889 9886 9882 9877 9873 9869 9864 9860 9855 9850 9847 9844 9842 9839 9835 9830 9827 9824 9819 9815 9812 9808 9804 9800 9797 9796 9794 9793 9791 9790 9789 9788 9787 9787 9788 9787 9784 9782 9781 9779 9779 9779 9778 9777 9777 9777 9777 9777 9777 9777 9777 9777 9777 9777 9777 9780 9783 9785 9787 9788 9790 9793 9795 9798 9801 9804 9806 9808 9809 9810 9812 9814 9814 9816 9819 9825 9830 9835 9840
9905 9900 9894 9889 9885 9881 9878 9874 9870 9865 9861 9857 9852 9847 9843 9839 9835 9831 9828 9826 9823 9820 9817 9813 9808 9803 9800 9796 9792 9789 9787 9785 9782 9780 9779 9778 9777 9775 9774 9774 9775 9775 9773 9771 9769 9768 9768 9767 9766 9765 9765 9765 9765 9765 9765 9765 9765 9765 9764 9764 9765 9766 9768 9771 9773 9775 9776 9778 9780 9783 9785 9787 9789 9792 9794 9795 9796 9798 9799 9800 9803 9808 9813 9818 9823
9894 9888 9883 9878 9874 9870 9867 9863 9858 9854 9849 9845 9840 9835 9831 9827 9824 9820 9815 9812 9810 9807 9805 9803 9798 9794 9789 9785 9781 9778 9776 9774 9772 9769 9767 9766 9765 9763 9762 9762 9763 9764 9763 9760 9758 9757 9757 9756 9755 9754 9753 9753 9753 9753 9753 9753 9754 9754 9753 9753 9753 9754 9755 9757 9759 9761 9763 9764 9767 9769 9770 9772 9774 9776 9778 9780 9781 9782 9784 9785 9788 9792 9796 9801 9806
9882 9877 9872 9867 9863 9859 9855 9851 9847 9842 9837 9833 9828 9823 9819 9816 9812 9808 9804 9800 9797 9794 9792 9790 9788 9785 9780 9775 9771 9768 9766 9764 9762 9759 9756 9755 9753 9751 9750 9750 9750 9751 9752 9751 9748 9746 9745 9745 9744 9743 9743 9743 9742 9742 9742 9742 9742 9742 9742 9742 9742 9743 9744 9744 9746 9748 9750 9751 9753 9755 9756 9758 9760 9762 9764 9765 9765 9767 9769 9771 9775 9778 9781 9784 9789
9871 9865 9860 9856 9852 9848 9844 9840 9835 9830 9826 9821 9816 9811 9808 9805 9801 9797 9793 9789 9785 9782 9779 9776 9775 9773 9771 9766 9762 9758 9756 9754 9752 9750 9747 9745 9743 9740 9738 9738 9738 9739 9740 9740 9739 9737 9736 9735 9733 9732 9732 9733 9732 9732 9732 9731 9731 9730 9730 9730 9731 9731 9732 9732 9734 9736 9737 9738 9740 9742 9743 9744 9747 9749 9750 9751 9751 9752 9755 9757 9761 9764 9767 9770 9773
9859 9853 9849 9845 9841 9837 9833 9828 9823 9819 9814 9809 9804 9800 9797 9794 9790 9786 9782 9778 9775 9771 9768 9765 9762 9760 9758 9756 9753 9749 9746 9744 9743 9740 9738 9736 9734 9731 9728 9727 9726 9726 9727 9728 9728 9728 9727 9726 9723 9721 9721 9721 9721 9721 9721 9721 9720 9720 9719 9719 9720 9720 9720 9720 9722 9723 9725 9726 9728 9729 9731 9732 9734 9735 9737 9738 9738 9739 9741 9744 9747 9750 9752 9756 9759
9847 9842 9837 9833 9830 9826 9821 9816 9812 9807 9803 9797 9793 9789 9786 9783 9779 9775 9771 9767 9764 9761 9757 9754 9752 9749 9746 9744 9742 9739 9737 9735 9734 9731 9729 9727 9725 9722 9719 9717 9716 9715 9715 9716 9716 9717 9718 9717 9715 9713 9712 9711 9711 9711 9711 9710 9710 9709 9709 9708 9709 9709 9710 9710 9710 9711 9713 9715 9716 9718 9719 9720 9721 9722 9724 9725 9726 9727 9728 9731 9734 9737 9738 9741 9745
9836 9831 9827 9823 9819 9814 9810 9805 9801 9796 9791 9786 9782 9779 9775 9772 9768 9765 9761 9757 9753 9750 9747 9744 9741 9739 9736 9733 9731 9728 9726 9726 9725 9723 9721 9719 9717 9714 9710 9707 9705 9705 9704 9704 9704 9705 9706 9707 9706 9705 9703 9702 9701 9700 9700 9699 9699 9699 9699 9698 9698 9699 9699 9699 9699 9700 9702 9704 9705 9706 9706 9707 9707 9709 9711 9713 9715 9715 9716 9719 9722 9724 9725 9727 9730
9825 9820 9816 9812 9808 9803 9798 9794 9790 9786 9781 9776 9772 9768 9765 9761 9758 9754 9750 9747 9743 9740 9737 9734 9732 9730 9727 9724 9721 9718 9716 9715 9714 9713 9712 9711 9709 9707 9703 9700 9697 9695 9694 9693 9693 9694 9695 9695 9695 9695 9694 9693 9692 9691 9690 9689 9689 9688 9688 9688 9688 9688 9688 9688 9689 9689 9691 9693 9693 9694 9694 9694 9696 9697 9699 9701 9703 9704 9706 9707 9709 9711 9713 9715 9718
9813 9809 9805 9801 9796 9792 9787 9783 9779 9775 9771 9766 9761 9758 9754 9751 9747 9744 9740 9737 9733 9730 9727 9724 9722 9720 9717 9715 9712 9709 9707 9705 9704 9703 9703 9702 9701 9699 9696 9693 9689 9687 9685 9684 9683 9683 9683 9684 9684 9683 9683 9683 9682 9682 9681 9680 9679 9679 9679 9679 9678 9678 9678 9678 9679 9679 9680 9681 9682 9682 9682 9683 9685 9686 9688 9689 9691 9693 9695 9696 9697 9699 9701 9704 9706
9802 9798 9794 9790 9785 9781 9776 9772 9768 9764 9760 9755 9751 9748 9744 9741 9737 9734 9730 9727 9723 9720 9717 9715 9713 9710 9708 9706 9704 9701 9698 9696 9694 9693 9693 9692 9691 9690 9688 9686 9682 9679 9677 9676 9675 9674 9674 9674 9673 9672 9672 9672 9672 9672 9671 9670 9670 9669 9669 9669 9669 9668 9668 9669 9669 9669 9669 9670 9670 9671 9671 9673 9674 9676 9677 9678 9679 9681 9683 9685 9686 9688 9690 9692 9694
9792 9787 9783 9778 9774 9770 9765 9761 9757 9754 9749 9745 9741 9738 9735 9731 9727 9724 9720 9717 9714 9711 9708 9706 9703 9701 9699 9698 9696 9693 9690 9688 9685 9684 9683 9682 9681 9681 9679 9677 9675 9672 9670 9668 9667 9666 9666 9665 9664 9663 9662 9661 9661 9661 9661 9661 9660 9660 9660 9660 9660 9659 9659 9659 9659 9659 9659 9660 9660 9661 9661 9662 9664 9665 9666 9667 9668 9670 9672 9674 9675 9677 9678 9680 9683
9781 9777 9772 9768 9763 9759 9755 9751 9747 9743 9739 9735 9731 9728 9725 9722 9718 9715 9711 9708 9705 9702 9700 9697 9694 9692 9690 9689 9688 9685 9683 9680 9677 9675 9674 9672 9671 9671 9669 9668 9666 9664 9662 9660 9658 9658 9657 9657 9656 9654 9653 9652 9651 9651 9651 9651 9651 9651 9651 9651 9651 9650 9650 9650 9650 9649 9650 9650 9651 9651 9652 9653 9654 9655 9656 9657 9658 9660 9661 9663 9664 9666 9668 9670 9672
9771 9766 9762 9757 9753 9749 9745 9741 9737 9733 9729 9726 9722 9719 9716 9712 9709 9706 9703 9699 9696 9694 9691 9689 9686 9684 9682 9680 9679 9677 9675 9672 9670 9667 9665 9664 9662 9661 9660 9659 9657 9656 9654 9652 9650 9649 9649 9648 9647 9646 9645 9644 9642 9642 9641 9641 9641 9641 9641 9641 9641 9641 9641 9641 9641 9641 9640 9641 9642 9643 9643 9644 9645 9646 9647 9648 9649 9650 9652 9653 9654 9656 9658 9660 9662
9760 9756 9751 9747 9743 9739 9735 9732 9728 9724 9720 9717 9713 9710 9707 9704 9700 9697 9694 9691 9688 9686 9683 9680 9678 9676 9674 9672 9670 9668 9666 9664 9662 9660 9657 9655 9654 9652 9651 9649 9648 9647 9646 9644 9643 9641 9640 9639 9638 9638 9637 9636 9635 9634 9633 9633 9633 9633 9632 9632 9632 9632 9633 9633 9633 9633 9632 9633 9633 9634 9635 9635 9636 9637 9638 9639 9640 9641 9643 9644 9645 9647 9649 9651 9653
9750 9745 9741 9737 9733 9729 9725 9722 9718 9714 9711 9708 9704 9701 9698 9695 9692 9689 9686 9683 9680 9677 9675 9672 9670 9668 9666 9664 9662 9660 9658 9656 9654 9651 9649 9647 9646 9644 9642 9641 9639 9639 9638 9636 9635 9634 9633 9631 9630 9630 9629 9628 9628 9627 9626 9625 9625 9624 9624 9624 9624 9624 9624 9624 9624 9625 9625 9625 9625 9626 9626 9627 9628 9629 9630 9631 9632 9633 9634 9636 9637 9639 9640 9642 9645
9739 9735 9731 9727 9723 9719 9716 9712 9709 9705 9702 9699 9695 9692 9689 9686 9683 9680 9678 9675 9672 9669 9667 9664 9662 9660 9658 9656 9654 9652 9650 9648 9645 9643 9641 9640 9638 9636 9634 9633 9631 9630 9629 9628 9627 9626 9626 9624 9623 9622 9621 9621 9620 9620 9619 9619 9618 9617 9617 9616 9616 9616 9617 9617 9617 9617 9617 9617 9618 9618 9619 9620 9620 9621 9622 9624 9624 9625 9627 9628 9629 9631 9632 9634 9637
9729 9726 9722 9718 9714 9710 9706 9703 9700 9696 9693 9690 9687 9684 9681 9678 9675 9672 9669 9666 9664 9661 9659 9656 9654 9652 9650 9648 9646 9644 9642 9640 9637 9635 9633 9632 9630 9628 9627 9625 9623 9622 9621 9620 9620 9619 9618 9617 9616 9615 9614 9613 9613 9613 9612 9612 9611 9610 9610 9609 9609 9609 9609 9610 9610 9610 9610 9610 9611 9611 9612 9613 9614 9614 9615 9616 9617 9618 9619 9621 9622 9623 9625 9627 9630
9720 9716 9712 9708 9705 9701 9698 9694 9691 9688 9684 9681 9678 9675 9672 9669 9666 9664 9661 9658 9656 9653 9650 9648 9646 9644 9642 9640 9638 9636 9634 9632 9630 9628 9626 9624 9622 9621 9619 9618 9616 9614 9613 9613 9612 9612 9611 9610 9609 9608 9607 9606 9606 9606 9605 9605 9604 9604 9603 9603 9603 9602 9602 9603 9603 9603 9603 9604 9604 9605 9605 9606 9607 9608 9609 9610 9611 9612 9613 9614 9615 9617 9619 9621 9623